Iron Mountain, MI

5:34 PM CST on February 05, 2016 (GMT -0600)
Ford

Weather History for KIMT - August, 2013

Change the Weather History Date:

Saturday, August 24, 2013

  Actual Average Record
Temperature  
Mean Temperature 70 °F -  
Max Temperature 82 °F 75 °F 95 °F (1948)
Min Temperature 57 °F 51 °F 34 °F (1942)
Cooling Degree Days 4    
Growing Degree Days 20 (Base 50)    
Moisture  
Dew Point 57 °F    
Average Humidity 65    
Maximum Humidity 93    
Minimum Humidity 41    
Precipitation  
Precipitation 0.00 in - - ()
Sea Level Pressure  
Sea Level Pressure 30.18 in    
Wind  
Wind Speed 7 mph (SSE)    
Max Wind Speed 16 mph    
Max Gust Speed 24 mph    
Visibility 10 miles    
Events      
Averages and records for this station are not official NWS values.
T = Trace of Precipitation, MM = Missing Value Source: NWS Daily Summary

Daily Weather History Graph

Daily Weather History Graph

Search for Another Location

Airport or City:

Trip Planner

Search our weather history database for the weather conditions in past years. The results will help you decide how hot, cold, wet, or windy it might be!

Date:

Astronomy

Aug. 24, 2013 Rise Set
Actual Time 6:03 AM CDT 7:44 PM CDT
Civil Twilight 5:32 AM CDT 8:16 PM CDT
Nautical Twilight 4:53 AM CDT 8:54 PM CDT
Astronomical Twilight 4:12 AM CDT 9:35 PM CDT
Moon 9:21 PM CDT (8/24) 10:19 AM CDT (8/24)
Length of Visible Light 14h 43m
Length of Day
13h 40m
Waning Gibbous, 84% of the Moon is Illuminated
Aug 24
Waning Gibbous
Aug 28
Last Quarter
Sep 5
New
Sep 12
First Quarter
Sep 19
Full

Hourly Weather History & Observations

Time (CDT) Temp. Heat Index Dew Point Humidity Pressure Visibility Wind Dir Wind Speed Gust Speed Precip Events Conditions
12:54 AM 61.0 °F - 55.9 °F 83% 30.18 in 10.0 mi SE 3.5 mph - N/A   Mostly Cloudy
1:54 AM 61.0 °F - 55.9 °F 83% 30.19 in 10.0 mi SSE 4.6 mph - N/A   Mostly Cloudy
2:54 AM 59.0 °F - 55.9 °F 90% 30.19 in 10.0 mi SE 3.5 mph - N/A   Clear
3:54 AM 57.0 °F - 55.0 °F 93% 30.20 in 10.0 mi Calm Calm - N/A   Partly Cloudy
4:54 AM 57.0 °F - 54.0 °F 89% 30.21 in 10.0 mi SE 3.5 mph - N/A   Clear
5:54 AM 57.0 °F - 54.0 °F 89% 30.23 in 10.0 mi SSE 4.6 mph - N/A   Partly Cloudy
6:54 AM 57.9 °F - 55.0 °F 90% 30.24 in 10.0 mi SSE 3.5 mph - N/A   Clear
7:54 AM 63.0 °F - 55.9 °F 78% 30.24 in 10.0 mi SSE 3.5 mph - N/A   Clear
8:54 AM 69.1 °F - 55.9 °F 63% 30.24 in 10.0 mi Calm Calm - N/A   Clear
9:54 AM 75.0 °F - 54.0 °F 48% 30.22 in 10.0 mi South 13.8 mph 17.3 mph N/A   Clear
10:54 AM 77.0 °F - 55.0 °F 47% 30.22 in 10.0 mi South 9.2 mph - N/A   Clear
11:54 AM 80.1 °F 80.2 °F 55.9 °F 43% 30.22 in 10.0 mi SW 12.7 mph 18.4 mph N/A   Clear
12:54 PM 81.0 °F 81.0 °F 57.0 °F 44% 30.20 in 10.0 mi SW 13.8 mph 20.7 mph N/A   Clear
1:54 PM 81.0 °F 81.0 °F 57.0 °F 44% 30.19 in 10.0 mi South 15.0 mph 24.2 mph N/A   Clear
2:54 PM 81.0 °F 80.8 °F 55.9 °F 42% 30.17 in 10.0 mi South 16.1 mph - N/A   Clear
3:54 PM 82.0 °F 81.6 °F 55.9 °F 41% 30.16 in 10.0 mi South 13.8 mph - N/A   Clear
4:54 PM 80.1 °F 80.6 °F 57.9 °F 47% 30.14 in 10.0 mi South 11.5 mph 17.3 mph N/A   Clear
5:54 PM 78.1 °F - 57.9 °F 50% 30.14 in 10.0 mi South 10.4 mph 18.4 mph N/A   Clear
6:54 PM 75.9 °F - 59.0 °F 56% 30.13 in 10.0 mi SSE 9.2 mph - N/A   Clear
7:54 PM 73.0 °F - 57.9 °F 59% 30.12 in 10.0 mi SSE 9.2 mph - N/A   Clear
8:54 PM 70.0 °F - 60.1 °F 71% 30.13 in 10.0 mi SSE 9.2 mph - N/A   Clear
9:54 PM 69.1 °F - 59.0 °F 70% 30.11 in 10.0 mi SSE 8.1 mph - N/A   Clear
10:54 PM 69.1 °F - 59.0 °F 70% 30.09 in 10.0 mi SSE 12.7 mph 18.4 mph N/A   Clear
11:54 PM 69.1 °F - 60.1 °F 73% 30.09 in 10.0 mi SSE 10.4 mph - N/A   Scattered Clouds